CAPE
79 469 690 881 955 1136 1276 1161 1034 995 1006 1257 1285 1350 1347 1352 1180 1026 863 797 856 547 414 626 603 781 1013 923 683 187 655 907 594 456 493 852 875 821 786 939 921 1003 623
161 601 781 1078 1266 1281 1356 1269 1160 1119 1125 1224 1317 1244 1264 1152 1116 973 707 582 372 191 293 462 467 800 1089 1146 748 506 476 717 1013 747 551 706 634 920 790 824 850 1048 738
208 592 886 1050 1234 1336 1510 1480 1377 1409 1367 1184 1234 1252 1125 1006 1130 1003 667 512 439 416 432 515 401 1342 1631 1360 1027 845 678 693 727 893 930 667 534 1037 943 664 743 870 912
150 477 775 1006 1159 1563 1758 1715 1699 1736 1658 1517 1291 1103 1056 1083 962 774 808 589 436 403 360 592 947 847 862 544 420 445 471 402 560 691 719 639 709 1334 1174 685 845 760 811
81 408 740 824 1016 1196 1488 1815 1923 1955 1921 1925 1845 1814 1638 1481 1258 1189 802 319 300 422 592 820 841 1002 831 609 261 121 267 212 166 364 762 672 824 995 1154 1011 647 904 804
62 284 494 640 817 907 1022 1162 1333 1414 1447 1523 1700 1706 1637 1462 1123 790 483 295 548 693 919 849 995 799 915 699 329 94 94 208 63 343 557 649 814 738 1038 1215 806 447 736
47 251 437 321 358 445 510 511 522 596 753 900 1020 1059 1105 945 527 216 109 305 627 794 754 687 471 251 117 35 53 18 1 58 162 173 185 492 443 388 586 639 778 614 382
24 140 276 334 344 298 283 312 370 477 526 540 600 830 930 761 647 544 499 452 394 227 153 198 362 455 448 440 324 241 235 139 290 370 381 373 339 447 515 423 468 581 472
203 142 258 305 259 243 196 167 266 352 384 366 367 410 400 404 327 179 117 137 96 57 33 18 42 82 68 8 0 0 1 24 262 193 95 167 66 260 365 382 365 417 379
312 302 283 302 232 124 158 99 148 212 305 291 209 113 64 82 54 13 0 0 0 0 0 0 0 0 0 0 0 0 0 0 0 9 9 0 0 169 235 341 405 432 452
460 501 508 410 287 117 46 143 120 194 331 337 280 105 54 55 10 0 0 0 0 0 0 0 0 0 0 0 0 0 0 0 0 0 0 0 0 7 144 159 288 413 518
772 775 681 637 592 246 13 173 188 203 444 640 592 364 155 57 1 0 0 0 0 0 0 0 0 0 0 0 0 0 0 0 0 0 0 0 0 0 17 71 164 331 394
1023 1083 857 873 833 530 232 235 216 163 240 329 508 444 157 44 11 0 0 0 0 0 0 0 0 0 0 0 0 0 0 0 0 0 0 0 0 0 0 23 97 169 311
1131 1305 1301 1028 891 780 622 527 337 309 244 290 289 269 246 109 6 0 0 0 0 0 0 0 0 0 0 0 0 0 0 0 0 0 0 0 0 0 0 0 0 71 144
1047 1165 1359 1198 662 189 83 272 363 361 343 381 316 217 128 52 0 0 0 0 0 0 0 0 0 0 0 0 0 0 0 0 0 0 0 0 0 0 0 0 0 0 22
624 818 843 339 13 3 0 24 77 167 286 238 245 237 114 25 0 0 0 0 0 0 0 0 0 0 0 0 0 0 0 0 0 0 0 0 0 0 0 0 0 0 0
105 137 254 0 0 0 0 0 0 0 0 0 1 18 15 1 0 0 0 0 0 0 0 0 0 0 0 0 0 0 0 0 0 0 0 0 0 0 0 0 0 0 0
0 0 0 0 0 0 0 0 0 0 0 0 0 0 0 0 0 0 0 0 0 0 0 0 0 0 0 0 0 0 0 0 0 0 0 0 0 0 0 0 0 0 0
0 0 0 0 0 0 0 0 0 0 0 0 0 0 0 0 0 0 0 0 0 0 0 0 0 0 0 0 0 0 0 0 0 0 0 0 0 0 0 0 0 0 0
0 0 0 0 0 0 0 0 0 0 0 0 0 0 0 0 0 0 0 0 0 0 0 0 0 0 0 0 0 0 0 0 0 0 0 0 0 0 0 0 0 0 0
0 0 0 0 0 0 0 0 0 0 0 0 0 0 0 0 0 0 0 0 0 0 0 0 0 0 0 0 0 0 0 0 0 0 0 0 0 0 0 0 0 0 0
0 0 0 0 0 0 0 0 0 0 0 0 0 0 0 0 0 0 0 0 0 0 0 0 0 0 0 0 0 0 0 0 0 0 0 0 0 0 0 0 0 0 0
0 0 0 0 0 0 0 0 0 0 0 0 0 0 0 0 0 0 0 0 0 0 0 0 0 0 0 0 0 0 0 0 0 0 0 0 0 0 0 0 0 0 0
0 0 0 0 0 0 0 0 0 0 0 0 0 0 0 0 0 0 0 0 0 0 0 0 0 0 0 0 0 0 0 0 0 0 0 0 0 0 0 0 0 0 0
0 0 0 0 0 0 0 0 0 0 0 0 0 0 0 0 0 0 0 0 0 0 0 0 0 0 0 0 0 0 0 0 0 0 0 0 0 0 0 0 0 0 0
0 0 0 0 0 0 0 0 0 0 0 0 0 0 0 0 0 0 0 0 0 0 0 0 0 0 0 0 0 0 0 0 0 0 0 0 0 0 0 0 0 0 0
CIN
-343 -79 -21 -15 -16 -8 -5 -20 -75 -117 -76 -34 -46 -56 -68 -39 -38 -55 -95 -101 -79 -139 -147 -71 -72 -38 -34 -38 -57 -105 -53 -42 -59 -82 -75 -40 -47 -85 -77 -59 -57 -38 -60
-278 -69 -27 -3 -8 -8 -10 -25 -38 -65 -79 -42 -48 -69 -67 -77 -78 -89 -133 -139 -200 -215 -165 -109 -86 -45 -36 -35 -42 -64 -64 -39 -25 -49 -55 -44 -53 -28 -62 -44 -40 -20 -71
-285 -113 -45 -31 -27 -18 -11 -27 -44 -62 -64 -97 -76 -82 -95 -105 -75 -74 -129 -134 -130 -138 -124 -114 -129 -27 -6 -8 -31 -41 -55 -43 -39 -19 -16 -26 -32 -21 -33 -58 -38 -21 -21
-360 -219 -137 -100 -85 -43 -33 -44 -38 -34 -54 -69 -83 -103 -90 -91 -96 -104 -63 -93 -135 -152 -161 -101 -59 -54 -34 -78 -105 -76 -77 -84 -53 -34 -23 -27 -13 -1 -11 -48 -28 -25 -12
-438 -277 -183 -167 -124 -108 -88 -41 -30 -23 -25 -13 -14 -13 -32 -49 -54 -42 -69 -156 -163 -152 -110 -68 -65 -38 -42 -80 -163 -182 -107 -99 -103 -47 -15 -12 -7 -2 -0 -8 -45 -11 -11
-452 -340 -267 -212 -158 -126 -97 -91 -83 -68 -61 -40 -1 -1 -2 -5 -33 -60 -111 -153 -88 -71 -38 -54 -33 -50 -30 -43 -131 -201 -168 -107 -143 -46 -20 -15 -13 -14 -7 -1 -11 -39 -8
-410 -350 -262 -303 -276 -232 -207 -206 -202 -181 -132 -106 -96 -86 -70 -79 -116 -186 -228 -128 -61 -20 -33 -48 -106 -185 -228 -280 -250 -255 -111 -181 -81 -80 -45 -24 -18 -30 -10 -11 -12 -16 -34
-374 -328 -275 -256 -237 -232 -230 -234 -216 -170 -148 -162 -139 -94 -83 -98 -96 -98 -96 -105 -123 -175 -210 -186 -120 -82 -71 -65 -102 -106 -86 -123 -57 -38 -39 -36 -50 -24 -10 -15 -18 -16 -28
-254 -261 -228 -205 -212 -218 -209 -213 -190 -177 -181 -197 -188 -174 -176 -167 -199 -245 -246 -213 -244 -307 -359 -388 -342 -290 -299 -174 -0 -0 -28 -239 -39 -68 -77 -39 -76 -43 -25 -14 -25 -17 -18
-186 -193 -186 -171 -164 -201 -212 -259 -230 -207 -180 -176 -217 -263 -293 -289 -328 -341 -0 -0 -0 -0 -0 -0 -0 -0 -0 -0 -0 -0 -0 -0 -0 -169 -159 -0 -0 -33 -35 -6 -5 -24 -11
-147 -137 -132 -136 -158 -222 -257 -232 -248 -205 -160 -163 -179 -238 -277 -241 -321 -0 -0 -0 -0 -0 -0 -0 -0 -0 -0 -0 -0 -0 -0 -0 -0 -0 -0 -0 -0 -26 -25 -23 -7 -25 -13
-71 -87 -120 -123 -121 -181 -284 -187 -174 -163 -107 -82 -78 -98 -125 -179 -82 -0 -0 -0 -0 -0 -0 -0 -0 -0 -0 -0 -0 -0 -0 -0 -0 -0 -0 -0 -0 -0 -81 -37 -38 -19 -20
-47 -72 -100 -109 -116 -124 -137 -141 -137 -135 -121 -98 -77 -75 -106 -157 -205 -0 -0 -0 -0 -0 -0 -0 -0 -0 -0 -0 -0 -0 -0 -0 -0 -0 -0 -0 -0 -0 -0 -73 -35 -23 -9
-62 -63 -75 -97 -107 -99 -103 -91 -100 -91 -86 -64 -68 -72 -59 -64 -135 -0 -0 -0 -0 -0 -0 -0 -0 -0 -0 -0 -0 -0 -0 -0 -0 -0 -0 -0 -0 -0 -0 -0 -0 -6 -4
-60 -66 -68 -87 -115 -147 -175 -114 -87 -68 -60 -50 -52 -64 -68 -69 -0 -0 -0 -0 -0 -0 -0 -0 -0 -0 -0 -0 -0 -0 -0 -0 -0 -0 -0 -0 -0 -0 -0 -0 -0 -0 -19
-80 -83 -109 -138 -272 -290 -0 -179 -144 -101 -73 -79 -67 -53 -67 -85 -0 -0 -0 -0 -0 -0 -0 -0 -0 -0 -0 -0 -0 -0 -0 -0 -0 -0 -0 -0 -0 -0 -0 -0 -0 -0 -0
-139 -153 -141 -0 -0 -0 -0 -0 -0 -0 -0 -0 -7 -107 -106 -7 -0 -0 -0 -0 -0 -0 -0 -0 -0 -0 -0 -0 -0 -0 -0 -0 -0 -0 -0 -0 -0 -0 -0 -0 -0 -0 -0
-0 -0 -0 -0 -0 -0 -0 -0 -0 -0 -0 -0 -0 -0 -0 -0 -0 -0 -0 -0 -0 -0 -0 -0 -0 -0 -0 -0 -0 -0 -0 -0 -0 -0 -0 -0 -0 -0 -0 -0 -0 -0 -0
-0 -0 -0 -0 -0 -0 -0 -0 -0 -0 -0 -0 -0 -0 -0 -0 -0 -0 -0 -0 -0 -0 -0 -0 -0 -0 -0 -0 -0 -0 -0 -0 -0 -0 -0 -0 -0 -0 -0 -0 -0 -0 -0
-0 -0 -0 -0 -0 -0 -0 -0 -0 -0 -0 -0 -0 -0 -0 -0 -0 -0 -0 -0 -0 -0 -0 -0 -0 -0 -0 -0 -0 -0 -0 -0 -0 -0 -0 -0 -0 -0 -0 -0 -0 -0 -0
-0 -0 -0 -0 -0 -0 -0 -0 -0 -0 -0 -0 -0 -0 -0 -0 -0 -0 -0 -0 -0 -0 -0 -0 -0 -0 -0 -0 -0 -0 -0 -0 -0 -0 -0 -0 -0 -0 -0 -0 -0 -0 -0
-0 -0 -0 -0 -0 -0 -0 -0 -0 -0 -0 -0 -0 -0 -0 -0 -0 -0 -0 -0 -0 -0 -0 -0 -0 -0 -0 -0 -0 -0 -0 -0 -0 -0 -0 -0 -0 -0 -0 -0 -0 -0 -0
-0 -0 -0 -0 -0 -0 -0 -0 -0 -0 -0 -0 -0 -0 -0 -0 -0 -0 -0 -0 -0 -0 -0 -0 -0 -0 -0 -0 -0 -0 -0 -0 -0 -0 -0 -0 -0 -0 -0 -0 -0 -0 -0
-0 -0 -0 -0 -0 -0 -0 -0 -0 -0 -0 -0 -0 -0 -0 -0 -0 -0 -0 -0 -0 -0 -0 -0 -0 -0 -0 -0 -0 -0 -0 -0 -0 -0 -0 -0 -0 -0 -0 -0 -0 -0 -0
-0 -0 -0 -0 -0 -0 -0 -0 -0 -0 -0 -0 -0 -0 -0 -0 -0 -0 -0 -0 -0 -0 -0 -0 -0 -0 -0 -0 -0 -0 -0 -0 -0 -0 -0 -0 -0 -0 -0 -0 -0 -0 -0
-0 -0 -0 -0 -0 -0 -0 -0 -0 -0 -0 -0 -0 -0 -0 -0 -0 -0 -0 -0 -0 -0 -0 -0 -0 -0 -0 -0 -0 -0 -0 -0 -0 -0 -0 -0 -0 -0 -0 -0 -0 -0 -0
Wind_Speed
14 13 14 15 14 13 14 14 15 16 16 15 15 15 16 15 15 14 15 16 17 18 21 21 20 18 20 19 18 18 15 13 12 14 16 18 17 15 14 12 10 9 9
14 15 16 17 16 14 14 14 15 15 16 16 16 16 15 14 14 14 15 16 17 20 19 20 22 23 23 22 22 22 19 18 15 14 15 18 19 18 15 15 14 10 8
15 16 16 17 17 16 14 14 15 16 16 15 14 14 14 14 15 15 17 18 20 20 21 22 24 26 26 25 24 23 22 20 19 17 15 15 19 19 17 16 16 12 11
16 16 16 16 17 17 17 16 16 15 15 15 14 15 15 14 15 16 17 20 21 23 24 24 23 22 25 25 25 24 23 22 21 22 17 15 17 22 20 17 17 15 13
15 15 15 16 17 17 17 16 16 16 16 16 16 16 16 16 16 16 17 19 21 23 23 23 22 23 23 24 24 23 22 23 22 22 22 20 16 17 22 20 18 19 16
15 15 15 15 15 15 16 17 18 17 17 18 17 18 17 17 19 19 20 20 20 22 23 23 22 22 22 23 24 24 23 22 22 22 23 24 23 22 22 23 22 21 22
17 16 15 15 15 15 16 16 17 17 16 15 16 16 16 16 17 17 18 19 21 22 23 23 22 22 20 20 22 23 22 22 22 24 26 27 27 25 23 25 25 26 24
16 16 16 15 15 15 16 16 17 16 16 18 17 16 16 16 17 18 18 17 17 18 19 20 20 21 21 21 20 20 20 20 20 22 24 25 26 27 25 25 27 26 26
19 18 17 16 16 16 16 17 16 16 17 17 17 16 16 16 17 18 18 17 18 19 20 20 20 20 19 19 20 21 21 20 20 21 22 22 25 26 26 25 25 24 25
18 17 17 17 17 17 16 15 15 15 15 16 16 16 16 16 17 17 17 18 18 19 20 20 20 20 20 20 20 20 20 20 20 20 20 21 24 25 24 26 24 27 29
17 17 16 16 15 15 15 15 14 14 14 15 15 15 15 15 15 17 18 19 19 20 20 21 21 21 20 20 21 21 21 20 20 20 20 24 25 23 25 27 27 24 27
18 16 14 14 13 14 15 14 14 14 14 15 16 16 15 15 15 16 16 17 18 20 21 22 23 23 22 21 21 22 22 22 21 21 21 24 24 24 23 24 24 24 24
14 13 12 12 12 14 15 16 15 15 15 16 16 16 15 15 15 15 16 17 18 18 18 19 20 21 23 23 23 23 23 23 22 21 23 25 26 26 25 24 25 25 24
12 11 10 10 12 14 15 15 14 14 14 15 16 16 17 17 17 17 18 19 19 19 19 19 20 21 22 22 22 23 23 22 21 21 21 23 24 25 26 25 24 24 27
8 8 9 10 11 14 16 17 15 15 15 16 17 17 18 19 20 20 20 20 21 21 21 21 21 22 22 22 22 23 23 23 22 21 21 23 23 24 26 26 26 26 27
7 7 9 9 12 14 17 17 18 17 17 18 18 19 19 20 22 23 23 23 23 22 22 22 22 22 22 22 22 21 23 24 23 23 22 22 23 24 24 25 26 26 27
6 7 7 8 11 14 16 17 17 18 18 19 20 19 19 20 22 23 24 25 25 24 23 22 22 22 22 21 23 22 23 23 22 23 23 23 23 23 24 25 25 25 27
6 5 6 8 10 12 14 16 18 19 20 20 22 23 22 22 23 23 24 24 25 24 23 23 23 24 24 23 23 23 24 24 23 24 23 22 24 24 25 26 26 26 27
8 6 6 8 11 12 15 17 19 21 21 22 24 24 24 23 23 23 23 23 23 22 22 21 21 21 23 23 24 24 24 25 25 24 24 23 24 25 26 26 27 28 29
10 9 9 9 12 14 17 20 22 23 23 24 25 25 27 27 27 26 26 25 25 25 24 24 24 23 23 24 24 25 26 26 25 25 24 25 23 24 25 27 29 30 31
12 10 9 10 15 18 21 23 24 26 27 28 29 29 29 29 28 28 29 30 29 29 28 28 28 26 25 24 27 28 29 28 27 25 24 24 26 26 26 28 30 32 33
15 15 17 19 21 23 23 24 25 28 27 29 31 34 35 35 35 34 33 34 34 34 33 32 31 33 32 27 29 31 36 31 28 26 25 25 26 25 28 30 31 32 33
19 20 20 21 23 25 26 27 28 27 29 31 37 39 41 41 39 39 39 38 38 36 36 34 33 34 37 34 29 32 37 39 31 24 25 25 24 26 27 29 30 32 33
21 21 20 22 25 27 28 29 32 33 36 36 39 40 42 42 44 43 42 41 39 39 38 38 36 36 36 40 35 35 34 35 38 38 28 28 28 29 30 30 31 31 32
21 22 23 24 27 29 30 32 34 35 36 39 42 45 46 45 43 43 42 42 41 39 39 39 38 36 35 35 35 34 33 33 33 38 42 34 30 32 31 33 33 31 33
23 24 25 27 29 32 34 35 36 39 41 45 47 50 50 48 47 44 42 40 38 37 36 34 32 30 29 26 28 30 32 34 35 34 37 38 40 39 36 37 35 35 33
Wind_Direction
14 13 5 13 21 37 53 50 53 43 31 23 31 42 54 46 40 28 19 5 1 357 348 344 345 348 341 342 346 345 354 354 8 345 328 309 310 312 312 319 332 340 340
41 42 38 35 33 37 48 42 34 35 36 44 48 42 37 38 30 17 6 1 354 352 351 347 336 328 326 328 327 321 333 334 342 354 339 317 302 305 310 304 305 318 328
56 56 51 45 38 38 47 40 42 44 50 45 42 32 26 20 9 5 354 348 342 343 342 341 336 317 313 317 317 312 317 321 321 328 336 343 305 297 303 304 299 302 301
60 60 53 44 42 45 56 51 47 39 32 37 32 22 18 8 360 358 352 347 340 333 333 336 340 336 318 313 314 313 314 313 312 308 329 343 327 294 298 300 294 291 293
62 56 57 56 52 51 42 35 29 26 22 18 13 11 10 9 5 3 357 352 340 334 337 340 339 334 331 322 319 320 320 313 309 308 306 312 329 328 294 290 289 280 283
65 66 57 49 38 25 20 15 12 12 11 7 14 17 19 13 4 0 357 353 351 342 339 340 340 338 332 326 320 317 316 315 310 303 301 299 309 312 302 283 282 280 275
82 69 62 60 47 34 27 21 18 16 21 34 29 26 31 27 25 23 18 9 355 347 345 346 347 347 346 341 330 322 319 315 308 300 297 295 299 303 304 284 280 276 272
81 76 70 66 54 41 34 29 29 33 37 30 40 60 60 56 47 40 35 39 37 28 20 12 8 1 1 358 354 344 336 327 317 312 305 304 302 300 299 290 285 277 269
114 107 111 100 86 76 68 59 61 64 52 48 47 44 41 39 33 26 27 30 27 22 14 9 9 9 9 7 3 353 345 339 334 324 317 314 307 303 302 292 289 281 275
121 117 108 98 85 78 78 73 70 68 61 51 44 36 31 27 22 18 16 12 10 6 1 359 358 356 354 353 356 356 353 347 338 337 335 330 318 308 303 297 296 282 271
128 124 111 96 84 75 69 65 64 59 48 39 34 32 28 26 21 14 7 3 360 356 353 350 347 346 346 347 345 343 346 347 341 336 334 325 321 321 305 299 286 293 276
131 125 114 94 83 65 54 52 44 37 33 28 25 23 23 20 17 12 10 5 360 354 347 341 338 337 337 336 334 335 335 335 335 332 330 324 323 324 323 311 298 298 289
122 117 102 88 71 52 40 31 25 20 19 16 16 16 16 13 9 4 360 356 353 351 349 346 342 338 332 328 327 326 326 326 328 330 327 321 317 315 315 317 298 292 293
113 105 87 75 60 44 37 34 31 27 20 16 12 9 4 1 358 354 349 346 344 344 341 341 339 336 332 330 327 325 325 328 329 329 330 327 323 317 313 309 308 299 290
97 81 74 66 54 39 31 26 25 21 16 10 5 1 356 351 347 344 342 340 338 337 335 334 332 330 329 329 327 323 321 322 324 327 327 326 324 320 314 310 306 302 293
87 73 61 51 37 28 22 20 18 16 10 6 2 358 353 348 344 341 338 336 335 334 333 331 329 328 326 326 324 322 319 316 316 317 320 323 324 324 320 313 308 305 300
62 52 55 38 23 16 14 14 17 13 9 5 2 1 357 351 345 340 337 334 333 332 330 330 328 326 325 324 320 319 317 316 314 313 312 314 317 319 319 316 312 308 304
34 46 34 23 19 15 15 13 9 7 4 0 357 354 353 350 345 341 338 335 334 332 329 327 324 322 320 318 317 316 314 314 313 311 309 310 311 312 313 313 310 308 306
22 40 31 14 6 6 4 1 358 356 356 352 349 349 348 346 345 340 336 332 331 330 328 326 324 321 319 316 314 312 311 310 309 308 306 307 309 310 308 308 307 305 303
15 14 4 1 358 356 353 349 347 348 350 348 346 344 341 339 336 334 331 327 324 320 318 317 315 316 314 313 311 309 308 307 306 303 301 303 307 310 310 308 304 300 299
19 14 17 6 354 349 347 345 345 345 344 344 343 342 342 339 337 332 328 324 320 313 309 309 308 307 307 308 309 307 304 302 300 298 297 298 301 306 306 307 306 302 298
15 8 357 351 346 345 343 342 341 338 340 340 341 339 339 336 333 330 326 322 318 313 308 302 299 300 301 299 300 303 301 301 298 295 294 295 299 302 304 304 304 304 300
356 352 349 346 346 346 345 344 343 343 341 338 335 333 332 331 332 329 325 322 319 316 311 306 299 293 293 295 289 293 297 295 299 296 289 293 295 300 304 305 304 303 302
350 353 356 353 349 347 346 343 341 338 335 334 332 331 330 329 327 326 324 322 319 316 311 308 304 298 293 289 292 287 290 292 290 290 291 289 293 294 297 302 303 303 301
355 353 351 349 347 346 344 341 338 336 335 332 330 329 328 328 327 326 324 321 319 317 313 309 305 301 296 289 284 287 287 289 291 287 285 286 291 293 294 297 300 301 302
353 350 347 343 343 342 339 338 336 334 331 329 328 327 326 326 325 325 325 325 325 324 321 319 317 314 309 301 298 294 287 284 286 286 287 287 288 290 291 293 294 297 299